Weather in Mishkin-Yel

Russia / Komi Republic     62°37′05″N   56°50′05″E
temp.,
°C
wind,
m/s
gust,
m/s
humid.,
%
clouds,
%
prec.,
mm/h
press.,
hPa
HPBL,
m
11 may, tue
tue1100:00+7nnw4791100 3.6 1025500
03:00+5nw269359 3.6 1027386
06:00+7nnw35736 0.0 1027563
09:00+11nw234748 0.0 1028948
12:00+14w2433100 0.0 10271413
15:00+13w3642100 0.0 1027770
18:00+11wsw2858100 0.0 1028339
21:00+10wsw2667100 0.0 1028180
12 may, wed
wed1200:00+9wsw2777100 0.0 1027212
03:00+10sw31081100 0.0 1027339
06:00+13wsw4127174 0.0 1026483
09:00+18wsw6105496 0.0 10251045
12:00+21w6104451 0.0 10241730
15:00+22w5941100 0.0 10231999
18:00+20w3950100 0.0 1023372
21:00+15w3106899 0.0 1024203
13 may, thu
thu1300:00+15wnw267355 0.0 1025165
03:00+13nnw1590100 0.0 1026166
06:00+14nne238121 0.0 1028449
09:00+19wnw125865 0.0 1027902
12:00+23w244425 0.0 10261911
15:00+25w35359 0.0 10242217
18:00+22sw25470 0.0 1022129
21:00+17sw2563100 0.0 102281
14 may, fri
fri1400:00+15sw31069100 0.0 1021181
03:00+15wsw31168100 0.0 1021228
06:00+18wsw396122 0.0 1020346
09:00+24w584024 0.0 10191888
12:00+26w5933100 0.0 10183068
15:00+22w264616 0.1 10171137
18:00+15wsw2687100 6.6 1018213
21:00+14ssw29935 6.7 1017227
15 may, sat
sat1500:00+13ssw289779 3.2 1016212
03:00+13sw31092100 3.9 1016237
06:00+16wsw3982100 0.0 1015399
09:00+20w475930 0.0 10151241
12:00+24w583983 0.0 10142675
15:00+24w3839100 0.0 10142698
18:00+21wsw3849100 0.0 1013238
21:00+17wsw226391 0.0 101336